Guadalupe Pass, TX

5:30 PM CDT on March 25, 2017 (GMT -0500)
Guadalupe Pass

Weather History for KGDP - July, 2013

Change the Weather History Date:

Sunday, July 7, 2013

  Actual Average Record
Temperature  
Mean Temperature 77 °F -  
Max Temperature 89 °F 86 °F 99 °F (2004)
Min Temperature 66 °F 64 °F 60 °F (2015)
Cooling Degree Days 12    
Growing Degree Days 27 (Base 50)    
Moisture  
Dew Point 48 °F    
Average Humidity 39    
Maximum Humidity 54    
Minimum Humidity 22    
Precipitation  
Precipitation 0.00 in - - ()
Sea Level Pressure  
Sea Level Pressure 29.85 in    
Wind  
Wind Speed 24 mph (ENE)    
Max Wind Speed 36 mph    
Max Gust Speed 38 mph    
Visibility 8 miles    
Events      
Averages and records for this station are not official NWS values.
T = Trace of Precipitation, MM = Missing Value Source: NWS Daily Summary

Daily Weather History Graph

Daily Weather History Graph

Search for Another Location

Airport or City:

Trip Planner

Search our weather history database for the weather conditions in past years. The results will help you decide how hot, cold, wet, or windy it might be!

Date:

Astronomy

Jul. 07, 2013 Rise Set
Actual Time 6:00 AM MDT 8:08 PM MDT
Civil Twilight 5:32 AM MDT 8:36 PM MDT
Nautical Twilight 4:58 AM MDT 9:09 PM MDT
Astronomical Twilight 4:21 AM MDT 9:46 PM MDT
Moon 5:34 AM MDT (7/7) 7:38 PM MDT (7/7)
Length of Visible Light 15h 03m
Length of Day
14h 08m
Waning Crescent, 0% of the Moon is Illuminated
Jul 7
Waning Crescent
Jul 8
New
Jul 15
First Quarter
Jul 22
Full
Jul 29
Last Quarter

Hourly Weather History & Observations

Time (MDT) Temp. Dew Point Humidity Pressure Visibility Wind Dir Wind Speed Gust Speed Precip Events Conditions
12:51 AM 73.0 °F 50.0 °F 44% 29.78 in 9.0 mi ENE 20.7 mph - N/A   Clear
1:51 AM 71.1 °F 48.9 °F 45% 29.78 in 9.0 mi NE 23.0 mph - N/A   Clear
2:51 AM 69.1 °F 48.0 °F 47% 29.79 in 9.0 mi ENE 17.3 mph - N/A   Clear
3:51 AM 68.0 °F 48.0 °F 49% 29.81 in 9.0 mi NE 18.4 mph - N/A   Mostly Cloudy
4:51 AM 68.0 °F 48.0 °F 49% 29.82 in 9.0 mi NE 25.3 mph - N/A   Mostly Cloudy
5:51 AM 66.0 °F 48.9 °F 54% 29.84 in 9.0 mi NE 26.5 mph - N/A   Mostly Cloudy
6:51 AM 66.0 °F 48.9 °F 54% 29.86 in 7.0 mi NE 26.5 mph - N/A   Scattered Clouds
7:51 AM 66.0 °F 48.9 °F 54% 29.88 in 7.0 mi ENE 24.2 mph - N/A   Partly Cloudy
9:51 AM 75.0 °F 50.0 °F 41% 29.86 in 7.0 mi ENE 24.2 mph - N/A   Unknown
10:51 AM 75.0 °F 51.1 °F 43% 29.87 in 8.0 mi ENE 31.1 mph - N/A   Clear
11:51 AM 78.1 °F 48.9 °F 36% 29.86 in 8.0 mi ENE 32.2 mph 36.8 mph N/A   Clear
12:51 PM 82.0 °F 48.0 °F 30% 29.85 in 8.0 mi ENE 28.8 mph 36.8 mph N/A   Clear
1:51 PM 84.0 °F 48.9 °F 29% 29.85 in 8.0 mi NE 25.3 mph 35.7 mph N/A   Clear
2:51 PM 88.0 °F 48.9 °F 26% 29.84 in 8.0 mi NE 20.7 mph 28.8 mph N/A   Clear
3:51 PM 88.0 °F 45.0 °F 22% 29.83 in 8.0 mi East 25.3 mph 32.2 mph N/A   Clear
4:51 PM 86.0 °F 45.0 °F 24% 29.83 in 8.0 mi East 25.3 mph 34.5 mph N/A   Clear
5:51 PM 84.9 °F 46.0 °F 26% 29.82 in 8.0 mi East 28.8 mph 35.7 mph N/A   Clear
6:51 PM 82.9 °F 45.0 °F 26% 29.83 in 8.0 mi East 31.1 mph - N/A   Clear
7:51 PM 81.0 °F 48.0 °F 31% 29.85 in 8.0 mi ENE 32.2 mph 38.0 mph N/A   Clear
8:51 PM 78.1 °F 48.9 °F 36% 29.88 in 9.0 mi ENE 35.7 mph - N/A   Clear
9:51 PM 75.9 °F 50.0 °F 40% 29.91 in 9.0 mi ENE 25.3 mph 36.8 mph N/A   Clear
10:51 PM 73.9 °F 50.0 °F 43% 29.93 in 10.0 mi ENE 23.0 mph 32.2 mph N/A   Clear
11:51 PM 72.0 °F 50.0 °F 46% 29.94 in 9.0 mi ENE 19.6 mph - N/A   Clear